Location: Vancouver
(49.2500°N, 123.1330°W)
Time: 11:09:21
(UTC-07:00)

BREEZE-M DEB (TANK) - Visible Passes

Search period start: 01 September 2015 00:00
Search period end: 11 September 2015 00:00
Orbit: 264 x 13520 km, 49.6° (Epoch: 01 September)

Date Brightness Start Highest point End Pass type
(mag) Time Alt. Az. Time Alt. Az. Time Alt. Az.
01 Sep 7.8 00:46:22 10° NW 01:32:59 16° W 01:47:05 10° WSW visible
01 Sep 7.2 20:54:49 10° WNW 22:39:43 53° WSW 23:03:12 16° S visible
02 Sep 7.4 22:42:07 10° NW 00:02:27 32° W 00:24:25 10° SW visible
03 Sep 7.2 19:00:50 10° WNW 21:00:26 71° SW 21:32:32 10° SSE visible
04 Sep 7.9 00:36:27 10° NW 01:21:15 15° WNW 01:34:22 10° W visible
04 Sep 7.3 20:44:12 10° WNW 22:28:32 51° WSW 22:54:09 12° S visible
05 Sep 7.6 22:31:04 10° NW 23:50:53 31° W 00:13:23 10° SW visible
06 Sep 7.3 18:50:33 10° WNW 20:49:27 69° SW 21:22:17 10° SSE visible
07 Sep 8.1 00:26:36 10° NW 01:09:15 14° WNW 01:20:58 10° W visible
07 Sep 7.4 20:33:21 10° WNW 22:17:05 49° WSW 22:44:10 10° S visible
08 Sep 7.7 22:19:50 10° NW 23:39:03 29° W 00:02:06 10° SW visible
09 Sep 7.4 18:40:03 10° WNW 20:38:12 68° SW 21:11:49 10° SSE visible
10 Sep 8.3 00:16:57 10° NW 00:57:00 13° WNW 01:06:44 10° W visible
10 Sep 7.5 20:22:17 10° WNW 22:05:23 47° WSW 22:33:21 10° S visible
